Weather History for KITR - April, 2014

Change the Weather History Date:

Tuesday, April 8, 2014

  Actual Average Record
Temperature  
Mean Temperature 47 °F 46 °F  
Max Temperature 69 °F 60 °F 85 °F (1930)
Min Temperature 25 °F 31 °F 10 °F (1938)
Degree Days  
Heating Degree Days 18    
Moisture  
Dew Point 25 °F    
Average Humidity 44    
Maximum Humidity 81    
Minimum Humidity 19    
Precipitation  
Precipitation 0.00 in 0.03 in 0.77 in (1943)
Month to date precipitation 0.11 0.21  
Year to date precipitation 1.02 1.90  
Sea Level Pressure  
Sea Level Pressure 30.11 in    
Wind  
Wind Speed 11 mph (WNW)    
Max Wind Speed 21 mph    
Max Gust Speed 30 mph    
Visibility 10 miles    
Events      
T = Trace of Precipitation, MM = Missing Value Source: NWS Daily Summary

Daily Weather History Graph

Daily Weather History Graph

Search for Another Location

Airport or City:

Trip Planner

Search our weather history database for the weather conditions in past years. The results will help you decide how hot, cold, wet, or windy it might be!

Date:

Astronomy

Apr. 08, 2014 Rise Set
Actual Time 6:22 AM MDT 7:19 PM MDT
Civil Twilight 5:55 AM MDT 7:47 PM MDT
Nautical Twilight 5:22 AM MDT 8:19 PM MDT
Astronomical Twilight 4:49 AM MDT 8:53 PM MDT
Moon 1:17 PM MDT (4/8) 2:34 AM MDT (4/8)
Length of Visible Light 13h 51m
Length of Day
12h 57m
Waxing Gibbous, 63% of the Moon is Illuminated
Apr 8
Waxing Gibbous
Apr 15
Full
Apr 22
Last Quarter
Apr 29
New
May 6
First Quarter

Hourly Weather History & Observations

Time (MDT) Temp. Windchill Dew Point Humidity Pressure Visibility Wind Dir Wind Speed Gust Speed Precip Events Conditions
12:53 AM 28.9 °F 21.1 °F 19.9 °F 69% 30.17 in 10.0 mi West 8.1 mph - N/A   Clear
1:53 AM 28.9 °F 20.4 °F 21.0 °F 72% 30.18 in 10.0 mi West 9.2 mph - N/A   Clear
2:53 AM 25.0 °F 16.3 °F 19.9 °F 81% 30.17 in 10.0 mi West 8.1 mph - N/A   Partly Cloudy
3:53 AM 26.1 °F 16.8 °F 19.9 °F 78% 30.16 in 10.0 mi West 9.2 mph - N/A   Clear
4:53 AM 28.9 °F 19.8 °F 21.9 °F 75% 30.15 in 10.0 mi WSW 10.4 mph - N/A   Mostly Cloudy
5:53 AM 30.0 °F 21.7 °F 21.9 °F 72% 30.15 in 10.0 mi West 9.2 mph - N/A   Mostly Cloudy
6:53 AM 32.0 °F 23.6 °F 23.0 °F 69% 30.17 in 10.0 mi West 10.4 mph - N/A   Clear
7:53 AM 41.0 °F 34.3 °F 27.0 °F 57% 30.17 in 10.0 mi WNW 11.5 mph - N/A   Clear
8:53 AM 51.1 °F - 27.0 °F 39% 30.15 in 10.0 mi NW 16.1 mph - N/A   Clear
9:53 AM 55.9 °F - 25.0 °F 30% 30.15 in 10.0 mi North 12.7 mph - N/A   Clear
10:53 AM 59.0 °F - 26.1 °F 28% 30.17 in 10.0 mi North 13.8 mph 24.2 mph N/A   Clear
11:53 AM 62.1 °F - 27.0 °F 26% 30.15 in 10.0 mi North 20.7 mph 27.6 mph N/A   Clear
12:53 PM 64.0 °F - 27.0 °F 25% 30.13 in 10.0 mi NNW 18.4 mph 28.8 mph N/A   Clear
1:53 PM 64.9 °F - 27.0 °F 24% 30.11 in 10.0 mi NNW 18.4 mph 28.8 mph N/A   Partly Cloudy
2:53 PM 66.9 °F - 27.0 °F 22% 30.09 in 10.0 mi North 17.3 mph - N/A   Scattered Clouds
3:53 PM 69.1 °F - 26.1 °F 20% 30.06 in 10.0 mi NNW 17.3 mph 29.9 mph N/A   Clear
4:53 PM 68.0 °F - 25.0 °F 20% 30.05 in 10.0 mi NNW 16.1 mph - N/A   Clear
5:53 PM 68.0 °F - 24.1 °F 19% 30.04 in 10.0 mi NNW 10.4 mph - N/A   Clear
6:53 PM 64.0 °F - 26.1 °F 24% 30.05 in 10.0 mi North 4.6 mph - N/A   Clear
7:53 PM 54.0 °F - 26.1 °F 34% 30.05 in 10.0 mi South 5.8 mph - N/A   Clear
8:53 PM 48.0 °F - 26.1 °F 42% 30.05 in 10.0 mi SSE 8.1 mph - N/A   Clear
9:53 PM 45.0 °F 39.3 °F 27.0 °F 49% 30.04 in 10.0 mi South 11.5 mph - N/A   Clear
10:53 PM 50.0 °F - 26.1 °F 39% 30.00 in 10.0 mi SSW 13.8 mph - N/A   Clear
11:53 PM 45.0 °F 40.1 °F 26.1 °F 48% 30.01 in 10.0 mi SSW 9.2 mph - N/A   Clear